Regional Weather Roundup
Issued by NWS

Home | Current Version | Previous Version | Text Only | Print | Product List | Glossary On
Versions: 1 2 3 4 5 6 7 8 9 10 11 12 13 14 15 16 17 18 19 20 21 22 23 24 25 26 27 28 29 30 31 32 33 34 35 36 37 38 39 40 41 42 43 44 45 46 47 48 49 50
000
ASUS43 KLMK 031110
RWRKY
KENTUCKY REGIONAL WEATHER ROUNDUP
NATIONAL WEATHER SERVICE LOUISVILLE KY
700 AM EDT TUE AUG 03 2021

NOTE "FAIR" INDICATES FEW OR NO CLOUDS BELOW 12,000 FEET
WITH NO SIGNIFICANT WEATHER AND/OR OBSTRUCTIONS TO VISIBILITY.

KYZ001>023-026-027-061>063-070>075-031200-
WESTERN AND SOUTH CENTRAL KENTUCKY

CITY           SKY/WX    TMP DP  RH WIND       PRES   REMARKS
PADUCAH        CLEAR     59  57  93 CALM      30.05R FOG
HENDERSON      PTCLDY    57  56  96 CALM      30.06R
OWENSBORO      CLEAR     62  59  90 NW3       30.05R
HOPKINSVILLE   PTCLDY    60  59  99 CALM      30.03R
BOWLING GREEN  CLEAR     60  57  89 NE3       30.04R
GLASGOW        CLEAR     58  58 100 CALM      30.04S
$$

KYZ024-025-028>034-038-045-046-053-031200-
NORTH CENTRAL KENTUCKY

CITY           SKY/WX    TMP DP  RH WIND       PRES   REMARKS
LOUISVILLE/SDF MOCLDY    65  59  81 N3        30.06R
LOUISVILLE/LOU MOCLDY    62  58  86 N5        30.07R
FORT KNOX      PTCLDY    60  59  97 N8        30.05R
$$

KYZ035>037-039>044-047>052-055>060-089>105-031200-
NORTHEAST KENTUCKY

CITY           SKY/WX    TMP DP  RH WIND       PRES   REMARKS
LEXINGTON      CLEAR     56  54  93 CALM      30.06R
COVINGTON      CLEAR     61  54  77 CALM      30.08R
FRANKFORT      CLEAR     57  55  93 N3        30.06R
$$

KYZ054-064>069-076>088-106>120-031200-
SOUTHEAST KENTUCKY

CITY           SKY/WX    TMP DP  RH WIND       PRES   REMARKS
JACKSON        PTCLDY    63  54  72 CALM      30.06R
LONDON         CLEAR     61  58  90 N3        30.05R
SOMERSET       MOCLDY    59  48  67 CALM      30.07R
MIDDLESBORO    CLOUDY    60  60 100 CALM      30.05S
MONTICELLO     MOSUNNY   57  57 100 CALM      30.07R FOG
$$




USA.gov is the U.S. government's official web portal to all federal, state and local government web resources and services.